This is the latest recevied weather packets stored in our database for station/object K8GLX. If no packets are shown the sender has not sent any weather packets the latest 1 day(s).
| Time | Temp. | Humidity | Pressure | Rain* | Wind** | Luminosity | Snow |
|---|---|---|---|---|---|---|---|
| 1778006063 | 14.44° C | 82% | 1008.1 hPa | 0 mm | 2.24 m/s, 302° | 72 W/m² | - |
| 1778005629 | 14.44° C | 82% | 1008 hPa | 0 mm | 2.68 m/s, 268° | 113 W/m² | - |
| 1778005334 | 14.44° C | 82% | 1007.9 hPa | 0 mm | 1.79 m/s, 261° | 100 W/m² | - |
| 1778005031 | 14.44° C | 82% | 1007.9 hPa | 0 mm | 2.68 m/s, 253° | 55 W/m² | - |
| 1778004734 | 14.44° C | 82% | 1007.7 hPa | 0 mm | 1.79 m/s, 298° | 85 W/m² | - |
| 1778004429 | 14.44° C | 82% | 1007.7 hPa | 0 mm | 2.24 m/s, 289° | 51 W/m² | - |
| 1778004261 | 14.44° C | 81% | 1007.8 hPa | 0 mm | 2.68 m/s, 289° | 63 W/m² | - |
| 1778003828 | 15° C | 80% | 1007.5 hPa | 0 mm | 3.13 m/s, 281° | 72 W/m² | - |
| 1778003534 | 15° C | 80% | 1007.5 hPa | 0 mm | 2.24 m/s, 273° | 90 W/m² | - |
| 1778003229 | 15° C | 80% | 1007.5 hPa | 0 mm | 3.58 m/s, 281° | 150 W/m² | - |
| 1778002935 | 15° C | 80% | 1007.6 hPa | 0 mm | 2.68 m/s, 278° | 138 W/m² | - |
| 1778002629 | 15° C | 80% | 1007.5 hPa | 0 mm | 2.68 m/s, 278° | 161 W/m² | - |
| 1778002461 | 15° C | 79% | 1007.5 hPa | 0 mm | 4.02 m/s, 267° | 160 W/m² | - |
| 1778002029 | 15° C | 78% | 1007.3 hPa | 0 mm | 3.58 m/s, 276° | 266 W/m² | - |
| 1778001735 | 15° C | 78% | 1007.3 hPa | 0 mm | 0.89 m/s, 282° | 229 W/m² | - |
| 1778001429 | 15° C | 79% | 1007.3 hPa | 0 mm | 3.13 m/s, 280° | 325 W/m² | - |
| 1778001263 | 15° C | 79% | 1007.3 hPa | 0 mm | 4.02 m/s, 285° | 301 W/m² | - |
| 1778000829 | 15° C | 79% | 1007.3 hPa | 0 mm | 3.58 m/s, 279° | 142 W/m² | - |
| 1778000534 | 15.56° C | 77% | 1007.4 hPa | 0 mm | 3.58 m/s, 257° | 105 W/m² | - |
| 1778000229 | 15.56° C | 77% | 1007.5 hPa | 0 mm | 1.79 m/s, 281° | 166 W/m² | - |
| 1777999934 | 15.56° C | 76% | 1007.2 hPa | 0 mm | 3.13 m/s, 271° | 114 W/m² | - |
| 1777999628 | 15.56° C | 76% | 1007.3 hPa | 0 mm | 4.47 m/s, 257° | 110 W/m² | - |
| 1777999335 | 15.56° C | 76% | 1007.2 hPa | 0 mm | 3.58 m/s, 279° | 165 W/m² | - |
| 1777999029 | 15.56° C | 75% | 1007.1 hPa | 0 mm | 3.58 m/s, 278° | 133 W/m² | - |
| 1777998734 | 16.11° C | 74% | 1007 hPa | 0 mm | 2.68 m/s, 277° | 144 W/m² | - |
* Rain latest hour (hover to see other rain measurements)
** Current wind speed in m/s (hover to see current wind gust speed)